Probability
42 42 58 61 39 48 35 52 39 39 35 16 16 13 10 13 16 16 35 48 42 58 48 45 35 35 32 29 19 23 29 35 26 26 29 35 29 23 19 16 16 16 19
55 52 55 58 55 55 42 55 42 52 42 29 29 29 23 19 23 26 13 42 42 52 55 52 52 45 42 39 29 26 32 29 32 35 32 32 32 29 26 16 16 23 23
58 58 39 45 61 58 61 65 58 42 42 35 35 35 35 35 29 35 19 19 32 39 58 55 55 55 48 39 39 35 45 35 35 32 29 29 26 32 26 16 16 19 16
68 71 58 52 61 52 42 61 45 48 45 48 45 42 45 52 39 39 26 29 42 32 48 48 52 48 48 45 48 48 45 39 32 32 32 26 26 23 23 19 16 23 19
61 65 61 77 61 48 35 35 48 48 48 55 48 55 42 42 42 35 32 32 32 48 45 52 52 61 45 52 48 48 48 45 42 32 35 32 35 32 19 16 19 23 10
65 65 55 84 52 52 55 58 58 65 71 68 26 29 39 35 35 35 29 29 35 32 23 29 48 52 42 52 48 48 48 58 48 35 26 35 32 32 19 13 10 13 13
68 77 58 74 74 55 61 58 68 61 61 61 55 45 32 23 23 29 26 23 19 19 29 39 39 52 45 29 32 42 45 45 52 48 42 35 29 29 29 10 10 6 10
65 52 77 68 68 77 77 74 77 71 55 58 68 48 32 23 29 10 23 32 23 26 29 29 42 45 39 39 32 32 39 45 45 42 39 32 39 29 26 26 13 6 6
65 71 68 68 71 58 61 77 74 74 68 58 61 55 45 23 23 13 26 23 29 29 23 26 19 29 35 35 32 16 29 35 42 42 42 32 39 26 19 13 13 13 6
65 65 61 65 71 65 71 65 71 71 71 58 58 74 45 35 26 16 23 19 26 32 32 16 10 13 29 32 32 13 16 16 26 29 35 32 35 29 19 16 19 13 10
61 58 61 58 61 61 65 68 71 68 61 58 52 45 48 52 29 19 19 23 23 23 26 26 32 29 23 23 29 19 3 0 0 6 16 26 32 29 19 16 16 16 13
45 45 48 48 42 45 45 48 45 42 39 45 52 42 45 42 32 32 16 19 16 19 23 26 23 26 23 23 10 3 0 0 0 0 0 6 16 23 26 19 19 19 23
45 48 32 35 35 32 39 39 42 35 35 39 32 29 45 42 32 29 23 13 16 16 23 23 13 19 16 16 13 0 0 0 0 0 0 0 0 3 10 16 23 23 23
42 39 35 29 32 29 26 35 29 26 32 32 32 39 42 32 29 26 29 23 19 16 16 16 19 16 13 16 0 0 3 0 0 0 0 0 0 0 0 0 3 10 13
39 29 26 26 29 26 29 26 26 23 26 26 26 26 32 26 29 26 23 26 19 13 13 19 23 19 13 16 0 6 6 0 0 0 0 0 0 0 0 0 0 0 0
39 32 26 26 26 23 23 26 19 23 26 26 19 13 16 13 16 19 16 23 29 19 13 13 23 19 19 6 3 13 6 0 0 0 0 0 0 0 0 0 0 0 0
39 32 29 26 19 19 19 26 13 16 16 16 16 13 10 10 13 16 16 19 26 16 16 13 13 13 13 10 3 10 3 3 0 0 0 0 0 0 0 0 0 0 0
32 26 29 16 13 13 19 16 13 16 16 16 13 10 3 3 6 10 10 6 10 10 13 13 10 10 6 10 6 6 0 0 0 0 0 0 0 0 0 0 0 0 0
26 23 23 23 13 13 13 10 10 10 10 10 6 3 3 3 3 6 6 6 6 6 10 6 6 6 6 3 6 3 3 3 0 0 0 0 0 0 0 0 0 0 0
23 19 19 19 13 10 10 6 6 6 10 6 6 3 3 3 3 6 6 10 10 6 6 6 3 6 6 6 6 3 3 3 3 3 0 0 0 0 0 0 0 0 0
16 16 13 13 10 6 6 6 6 6 6 6 6 6 3 3 3 3 6 6 6 6 6 6 6 6 6 3 3 3 3 3 3 3 3 3 3 0 0 0 0 0 0
13 16 13 10 10 3 3 0 3 3 6 6 6 3 3 3 3 3 0 0 3 3 6 6 6 6 6 6 6 0 0 3 3 3 3 3 3 0 0 0 0 0 0
13 13 13 10 6 3 0 0 0 3 3 3 3 6 3 0 3 3 3 3 0 0 0 6 3 3 3 3 3 3 3 0 3 3 3 0 0 0 0 0 0 0 0
13 6 3 6 6 3 0 0 0 0 0 0 3 6 3 3 3 3 3 3 3 3 3 3 3 3 3 3 3 3 3 3 0 0 0 0 0 0 0 0 0 0 0
13 13 10 10 6 6 3 0 0 3 3 6 3 3 6 3 3 0 3 3 3 3 3 0 0 0 0 0 3 3 3 0 0 0 0 0 0 0 0 0 0 0 0
13 10 3 10 10 10 3 0 0 3 6 6 3 3 3 3 0 0 3 3 3 3 3 3 0 0 0 0 0 3 0 0 0 0 0 0 0 0 0 0 0 0 0
Height
5901 5900 5901 5901 5901 5901 5901 5901 5901 5901 5901 5902 5902 5902 5902 5902 5902 5902 5902 5902 5902 5901 5901 5901 5900 5900 5900 5900 5899 5899 5898 5898 5897 5897 5897 5896 5896 5895 5895 5895 5895 5894 5894
5902 5902 5902 5902 5902 5902 5902 5902 5902 5902 5902 5902 5902 5902 5902 5902 5902 5902 5901 5901 5901 5901 5900 5900 5899 5899 5899 5898 5898 5897 5897 5896 5896 5895 5895 5894 5894 5894 5893 5893 5893 5892 5892
5903 5903 5903 5903 5902 5902 5902 5902 5902 5902 5903 5902 5902 5902 5902 5902 5901 5901 5901 5900 5900 5900 5899 5899 5899 5898 5897 5897 5896 5896 5895 5895 5894 5894 5893 5893 5892 5892 5891 5891 5891 5890 5890
5904 5904 5904 5903 5903 5903 5903 5903 5903 5902 5902 5902 5902 5902 5901 5901 5901 5900 5900 5899 5899 5898 5898 5898 5897 5897 5896 5896 5895 5894 5893 5893 5892 5892 5891 5890 5890 5889 5889 5889 5888 5888 5887
5904 5904 5904 5904 5904 5903 5903 5903 5902 5902 5902 5901 5901 5901 5900 5900 5899 5899 5899 5898 5897 5897 5896 5896 5895 5895 5894 5894 5893 5892 5891 5890 5890 5889 5888 5888 5887 5887 5886 5886 5885 5885 5884
5905 5905 5905 5904 5904 5903 5903 5902 5902 5901 5900 5900 5900 5899 5899 5899 5898 5897 5897 5896 5896 5895 5894 5894 5893 5892 5892 5891 5890 5890 5889 5888 5887 5886 5885 5885 5884 5883 5883 5883 5882 5881 5881
5905 5905 5905 5904 5904 5903 5902 5901 5901 5900 5900 5899 5899 5898 5897 5897 5896 5895 5895 5894 5893 5893 5892 5891 5891 5890 5889 5888 5888 5887 5886 5885 5884 5883 5882 5881 5880 5880 5879 5879 5878 5877 5877
5905 5905 5905 5904 5903 5903 5901 5901 5900 5899 5898 5898 5897 5896 5896 5896 5894 5893 5892 5892 5891 5890 5889 5889 5888 5887 5886 5885 5884 5884 5883 5882 5881 5880 5879 5878 5877 5876 5875 5875 5874 5873 5872
5904 5904 5904 5903 5902 5901 5900 5899 5898 5898 5897 5896 5895 5895 5894 5893 5892 5891 5890 5889 5888 5887 5886 5885 5884 5883 5882 5882 5881 5880 5879 5878 5877 5876 5875 5874 5873 5872 5871 5871 5870 5869 5868
5904 5903 5903 5902 5901 5900 5899 5898 5897 5896 5895 5894 5893 5892 5891 5890 5889 5888 5887 5886 5885 5884 5883 5882 5881 5880 5879 5878 5877 5876 5875 5874 5873 5872 5871 5870 5869 5868 5867 5866 5865 5864 5864
5903 5902 5901 5900 5899 5898 5897 5896 5895 5893 5892 5892 5891 5890 5889 5888 5886 5886 5885 5883 5882 5881 5880 5878 5877 5876 5875 5874 5873 5872 5871 5871 5869 5868 5867 5866 5865 5864 5863 5862 5861 5859 5858
5902 5901 5900 5899 5898 5896 5895 5894 5893 5891 5890 5889 5888 5887 5886 5885 5884 5883 5882 5880 5879 5878 5876 5875 5874 5872 5871 5870 5869 5868 5867 5866 5865 5864 5862 5861 5860 5859 5858 5857 5856 5854 5853
5901 5900 5899 5897 5896 5895 5894 5892 5891 5890 5889 5888 5886 5885 5884 5883 5882 5880 5879 5877 5876 5874 5873 5872 5870 5869 5867 5866 5865 5864 5863 5862 5860 5859 5857 5856 5855 5854 5853 5851 5850 5849 5847
5899 5898 5897 5896 5895 5893 5892 5891 5889 5888 5887 5886 5885 5883 5882 5880 5879 5878 5877 5875 5873 5872 5870 5869 5867 5866 5864 5862 5861 5860 5858 5857 5855 5854 5852 5851 5850 5849 5847 5846 5844 5843 5841
5898 5897 5896 5894 5893 5892 5891 5889 5888 5886 5885 5884 5883 5881 5880 5878 5877 5875 5874 5873 5872 5870 5868 5866 5865 5863 5861 5859 5857 5856 5854 5852 5851 5849 5847 5846 5844 5843 5841 5840 5838 5836 5834
5897 5896 5895 5893 5892 5890 5889 5888 5886 5884 5883 5882 5880 5879 5878 5876 5874 5872 5870 5869 5868 5867 5866 5864 5862 5860 5858 5856 5854 5852 5850 5848 5846 5844 5842 5840 5839 5837 5835 5833 5831 5829 5827
5896 5895 5893 5892 5890 5889 5887 5886 5884 5882 5881 5879 5878 5877 5875 5873 5871 5869 5867 5866 5865 5864 5862 5860 5858 5856 5854 5852 5850 5848 5845 5843 5841 5839 5837 5834 5832 5830 5828 5826 5824 5821 5819
5894 5893 5892 5890 5889 5887 5886 5884 5882 5880 5878 5877 5875 5874 5872 5870 5868 5866 5864 5863 5862 5860 5858 5857 5854 5852 5850 5848 5846 5843 5841 5838 5836 5833 5831 5828 5826 5823 5821 5818 5816 5814 5811
5893 5891 5890 5888 5887 5885 5883 5881 5880 5877 5876 5874 5872 5870 5868 5867 5865 5863 5861 5860 5858 5856 5855 5853 5851 5849 5846 5844 5841 5839 5836 5833 5830 5828 5825 5822 5820 5817 5814 5811 5809 5806 5804
5891 5889 5888 5886 5884 5883 5881 5879 5877 5875 5873 5871 5869 5867 5865 5863 5861 5859 5858 5856 5854 5852 5850 5849 5847 5844 5842 5839 5837 5834 5831 5828 5825 5822 5819 5816 5813 5810 5807 5805 5802 5799 5796
5889 5887 5886 5884 5882 5880 5878 5876 5874 5872 5870 5868 5867 5865 5862 5860 5858 5856 5855 5853 5851 5849 5846 5844 5842 5840 5838 5835 5832 5829 5826 5823 5820 5817 5814 5811 5807 5804 5801 5797 5794 5791 5788
5887 5885 5883 5881 5879 5877 5875 5873 5871 5869 5867 5865 5863 5861 5859 5857 5855 5853 5851 5849 5847 5845 5843 5840 5838 5836 5833 5830 5827 5824 5821 5817 5814 5811 5807 5804 5801 5797 5794 5791 5787 5783 5780
5884 5882 5880 5879 5877 5874 5872 5870 5868 5866 5864 5862 5860 5858 5856 5854 5852 5850 5848 5845 5843 5841 5839 5837 5834 5831 5828 5826 5823 5819 5815 5812 5808 5804 5801 5797 5794 5790 5787 5783 5779 5776 5772
5882 5880 5878 5876 5874 5872 5870 5868 5866 5864 5861 5859 5857 5855 5853 5851 5849 5847 5844 5842 5840 5837 5835 5832 5830 5827 5824 5821 5817 5814 5810 5806 5802 5798 5794 5791 5787 5783 5779 5775 5771 5768 5764
5879 5876 5874 5872 5870 5869 5866 5865 5863 5860 5858 5856 5854 5852 5850 5847 5845 5843 5841 5838 5836 5833 5830 5828 5825 5822 5819 5815 5812 5808 5804 5800 5796 5792 5788 5784 5780 5776 5772 5767 5763 5759 5755
5875 5873 5871 5869 5867 5865 5863 5861 5859 5856 5854 5852 5850 5848 5846 5843 5841 5839 5836 5834 5831 5828 5826 5823 5820 5817 5813 5810 5806 5803 5799 5794 5790 5786 5782 5778 5773 5769 5764 5760 5756 5751 5747
Wind_Speed
8 8 7 6 6 6 5 5 5 5 4 3 3 3 2 2 1 1 1 1 1 2 3 4 4 5 5 5 5 6 6 6 6 6 6 6 7 7 7 7 8 8 9
6 6 6 5 5 4 4 4 3 3 2 2 2 1 1 0 1 1 2 3 3 4 4 4 5 6 6 6 6 7 7 7 7 7 8 8 7 8 8 9 9 9 9
4 4 4 4 4 4 3 2 2 1 1 0 0 1 1 2 2 3 3 4 4 5 6 6 6 6 6 7 7 7 8 9 9 9 9 8 8 8 8 9 9 10 10
4 3 3 3 2 2 1 1 1 1 1 2 2 3 3 4 4 5 5 5 5 6 7 7 7 7 7 8 8 8 9 9 9 10 10 10 9 9 10 10 11 11 12
3 3 2 2 1 1 1 1 1 2 3 3 4 5 6 6 6 6 7 7 8 8 7 7 8 9 9 10 10 11 11 11 11 11 11 12 12 12 12 12 13 13 13
1 1 1 1 2 2 2 2 2 3 3 4 5 6 7 7 8 8 8 9 9 8 8 9 10 11 11 11 12 13 13 13 13 13 13 13 13 13 13 14 15 14 14
1 1 2 2 3 4 4 4 4 5 5 5 6 6 8 9 9 9 10 9 9 9 10 11 11 12 12 13 13 13 13 14 14 14 14 14 14 14 15 15 15 15 16
2 3 3 3 4 5 6 6 6 6 6 6 7 8 8 9 9 10 10 10 10 11 11 12 13 13 13 13 13 14 14 14 14 14 14 14 15 15 15 17 17 17 17
2 3 4 5 6 7 7 8 8 8 8 8 8 8 9 10 9 10 10 11 11 12 12 13 13 13 14 14 14 14 14 15 16 16 15 16 17 17 17 17 18 18 18
4 5 6 6 7 8 9 9 9 9 9 9 9 9 9 10 10 10 11 11 12 13 13 14 14 14 14 14 14 14 15 15 16 16 17 17 18 18 18 18 19 20 20
5 6 7 8 8 8 9 10 9 10 10 9 9 10 10 11 11 11 11 12 13 13 13 13 13 14 14 15 15 15 16 16 16 17 18 18 19 19 19 19 19 21 22
6 6 7 8 8 9 9 9 9 9 9 9 9 10 10 11 11 11 11 12 12 12 12 12 13 14 15 15 15 16 16 17 17 18 19 19 19 20 20 20 20 21 22
7 7 8 8 9 9 9 9 9 8 8 9 9 10 10 11 11 11 11 11 12 12 12 12 13 13 14 15 15 15 17 17 18 19 19 20 20 21 21 21 21 22 23
8 8 8 8 9 9 9 9 8 8 8 9 9 10 10 11 11 11 11 11 11 12 12 13 13 13 14 15 15 16 17 18 18 19 20 21 21 22 22 23 24 24 24
8 9 9 9 9 9 9 9 9 9 10 10 10 10 10 10 11 11 11 11 12 13 13 14 14 15 15 15 16 17 18 18 19 20 20 21 22 23 24 24 25 26 27
8 9 9 9 9 10 10 10 10 10 10 10 11 11 11 11 12 13 12 12 13 13 13 14 15 15 16 17 17 18 18 19 20 20 21 22 23 24 25 26 27 28 29
9 9 10 10 11 11 11 11 11 11 11 11 12 12 13 13 14 14 13 13 14 14 15 15 16 16 17 17 18 18 19 20 21 21 22 23 24 25 26 26 27 28 29
10 10 10 11 12 12 12 12 12 11 12 12 12 13 13 13 14 14 14 15 15 16 16 16 17 17 18 18 18 19 20 21 22 22 23 24 24 25 26 26 27 27 29
10 10 11 12 13 12 12 13 12 12 13 13 13 13 14 14 14 15 15 16 16 17 17 17 17 18 18 19 19 20 20 22 23 24 24 25 26 26 26 26 27 28 29
12 12 12 13 13 13 13 13 13 13 14 14 14 14 14 14 14 15 15 16 16 17 17 17 17 18 18 19 19 21 21 23 24 24 24 25 26 26 27 28 29 29 30
12 13 13 14 14 14 14 13 14 14 14 14 15 15 14 14 14 14 15 15 16 16 17 17 17 18 19 19 20 22 22 23 24 25 25 26 27 27 27 28 29 29 30
13 14 14 14 15 15 15 14 14 14 14 14 15 15 14 15 15 15 15 16 16 17 17 17 18 18 19 20 21 22 23 24 24 25 26 27 27 28 28 29 29 30 30
14 14 15 15 16 16 16 16 15 15 14 14 15 15 15 15 15 15 15 16 16 17 17 17 18 19 20 21 22 23 24 24 25 26 27 28 29 30 30 31 31 31 31
15 15 15 16 16 16 17 17 16 16 16 15 15 16 16 15 16 16 16 16 17 17 18 18 19 20 21 22 23 24 25 26 26 27 27 28 29 30 31 31 31 31 31
17 16 16 16 16 17 17 17 17 17 17 16 16 16 16 16 16 17 17 18 18 19 19 20 21 22 23 24 25 25 26 27 27 28 28 29 29 30 31 31 32 32 32
18 17 17 17 17 17 18 18 17 17 17 17 17 17 17 17 18 18 19 19 19 20 21 22 22 23 24 25 25 26 27 27 28 28 29 30 30 31 31 32 32 32 32
Wind_Direction
106 105 105 110 114 118 122 122 109 106 100 99 106 110 113 135 153 175 202 228 242 249 252 254 255 261 267 268 267 268 270 272 271 272 269 269 268 267 268 272 273 276 278
104 104 104 106 111 120 121 119 112 104 100 89 94 102 92 286 258 252 257 259 261 264 263 265 265 273 272 272 271 269 270 270 271 270 269 267 270 272 272 273 275 277 278
103 100 101 103 101 105 110 119 132 130 130 136 321 284 280 286 289 281 271 270 269 270 266 267 268 273 276 279 282 280 275 271 271 271 270 269 271 273 273 275 275 276 277
106 99 101 105 97 97 100 132 168 206 229 260 275 279 284 285 286 286 279 279 276 277 275 274 275 276 277 281 276 279 280 280 278 275 272 270 273 271 272 274 275 275 277
99 90 91 92 81 52 21 328 283 265 264 269 275 280 282 284 282 280 277 275 275 275 276 279 277 276 280 283 278 281 281 281 283 280 276 273 274 271 270 274 273 274 277
77 61 41 18 5 344 323 317 311 299 289 283 281 279 279 281 281 280 279 276 278 276 276 280 281 281 278 279 282 282 282 280 279 278 275 274 276 276 276 277 276 275 276
306 292 308 317 326 322 310 303 303 302 297 293 290 286 283 280 280 280 280 281 281 278 278 280 281 281 279 278 280 281 282 281 281 281 277 275 278 277 278 279 278 278 278
302 303 305 310 310 308 301 295 298 301 299 298 291 287 287 284 284 285 283 286 284 279 276 277 278 278 280 281 282 283 284 283 284 284 281 277 279 278 279 277 280 281 281
311 307 301 300 302 305 303 295 294 292 295 298 295 294 294 293 290 290 288 287 283 280 279 281 280 278 279 280 283 284 286 284 282 282 281 279 277 277 277 278 278 280 281
302 304 304 305 306 307 307 304 300 294 293 293 292 293 295 295 297 295 292 290 285 282 282 282 282 280 280 280 281 282 283 285 285 282 282 279 279 280 279 280 279 278 279
306 309 309 310 309 310 308 305 304 301 294 290 290 292 295 295 296 294 296 296 294 289 285 284 283 283 283 284 283 285 285 286 286 283 283 284 283 282 281 280 282 282 281
316 317 315 313 314 316 314 312 308 305 300 299 297 296 298 296 296 296 297 296 298 296 293 290 287 286 285 284 283 285 286 286 288 287 286 285 285 284 283 282 284 285 284
321 318 317 315 315 316 316 315 313 306 303 305 306 306 306 303 306 305 304 303 304 303 302 302 296 293 292 291 290 289 289 289 289 289 289 288 288 287 286 287 286 286 287
325 322 320 317 317 319 322 322 318 314 308 307 307 308 308 307 311 310 308 308 307 304 306 307 308 307 306 300 294 293 293 290 290 290 289 289 289 288 288 289 288 288 288
325 324 321 318 320 321 321 320 319 315 314 312 312 313 313 311 312 311 308 307 308 306 305 305 306 307 308 307 301 301 300 296 293 291 291 292 291 289 289 289 288 288 287
327 328 327 325 322 320 320 320 318 314 313 312 311 311 311 310 308 307 304 305 305 304 304 306 306 307 304 303 304 303 304 302 300 295 292 293 292 291 291 291 290 289 287
325 325 326 324 321 322 320 319 318 314 311 308 307 307 305 303 303 304 300 305 304 303 305 305 306 307 308 307 306 305 305 305 302 299 297 297 295 295 293 293 293 292 290
325 322 321 322 319 319 320 318 317 317 314 308 306 307 306 303 301 301 302 304 303 304 305 305 305 305 306 306 307 308 308 307 306 305 305 304 301 300 298 295 295 295 294
326 323 321 320 321 321 319 320 319 317 315 311 309 310 309 306 304 302 302 302 303 304 305 305 305 306 306 307 308 309 309 308 307 306 306 305 304 303 301 300 299 297 297
323 322 320 319 320 321 320 317 316 317 315 312 311 312 311 309 308 305 303 303 304 304 305 305 306 307 309 308 308 308 308 307 307 306 306 305 304 304 303 301 299 299 298
324 323 322 320 321 320 318 317 315 313 313 311 310 311 312 313 312 311 310 309 307 306 306 306 307 307 308 308 308 309 309 308 307 306 307 305 305 306 306 304 301 300 299
322 320 319 320 323 322 319 314 312 313 312 313 312 310 312 315 315 314 312 311 311 311 310 309 308 309 310 310 310 311 311 309 307 307 306 305 305 305 306 305 305 304 303
319 319 318 318 318 318 318 316 313 313 312 313 315 313 312 313 317 317 316 314 314 313 313 312 311 311 311 311 312 312 312 311 311 310 308 307 306 307 305 305 304 304 303
316 316 315 315 315 316 316 314 314 314 311 310 310 313 313 312 315 316 316 315 315 315 315 315 314 314 315 316 315 314 314 313 312 311 309 309 308 307 306 306 306 305 304
314 312 311 312 313 314 313 312 311 310 308 307 307 309 310 309 310 311 313 313 313 312 312 312 312 313 313 314 313 314 315 315 314 313 312 311 310 310 309 309 308 307 306
312 311 310 311 311 311 312 311 310 309 308 307 306 307 307 306 306 307 309 310 309 310 310 310 310 311 313 313 314 314 314 314 314 314 314 313 313 312 312 311 310 309 307